Home > Weather > Porto Alegre > Past weeks

Flag for Brazil Past Weather in Porto Alegre, Rio Grande do Sul, Brazil — Yesterday and Last 2 Weeks

Now
61 °F

Sunny.


Feels Like: 61 °F
Forecast: 44 / 65 °F
Wind: 14 mph from East

Location: Porto Alegre Aero-Porto

Current Time: Jul 29, 2016 at 1:15:51 PM

Latest Report: Jul 29, 2016 at 12:00 PM


Visibility: 10 mi

Pressure: 30.27 "Hg

Humidity: 59%

Dew Point: 46 °F

Location of Porto AlegreLocation

Past Weather in Porto Alegre — Graph

°F

Porto Alegre Temperature Yesterday

Maximum temperature yesterday: 57 °F (at 1:00 PM)
Minimum temperature yesterday: 41 °F (at 6:00 AM)
Average temperature yesterday: 49 °F

High & Low Weather Summary for the Past Weeks

 TemperatureHumidityPressure
High75 °F (Jul 25, 2:00 PM)100% (Jul 14, 1:00 PM)30.33 "Hg (Jul 14, 1:00 PM)
Low41 °F (Jul 20, 6:00 AM)41% (Jul 15, 1:00 AM)29.71 "Hg (Jul 26, 4:00 AM)
Average54 °F79%30.13 "Hg
* Reported Jul 14 12:00 PM — Jul 29 12:00 PM, Porto Alegre, Weather by CustomWeather, © 2016

Note: Actual official high and low records may vary slightly from our data, if they occured in-between our weather recording intervals... More about our weather records

Advertising

Porto Alegre Weather History for the Previous 24 Hours

Scroll right to see more
 ConditionsComfort  
Time TempWeatherWind HumidityBarometerVisibility
12:00 PM
Fri, Jul 29
61 °FSunny.14 mph59%30.27 "Hg10 mi
11:00 AM57 °FPassing clouds.12 mph67%30.30 "HgN/A
10:00 AM50 °FFog.3 mph88%30.30 "Hg2 mi
9:00 AM46 °FFog.5 mph93%30.30 "Hg2 mi
8:00 AM45 °FFog.2 mph93%30.27 "Hg3 mi
7:00 AM41 °FFog.2 mph93%30.27 "Hg1 mi
6:00 AM41 °FFog.3 mph93%30.27 "Hg3 mi
5:00 AM45 °FClear.5 mph93%30.27 "Hg5 mi
4:00 AM45 °FClear.3 mph93%30.27 "Hg6 mi
3:00 AM46 °FPassing clouds.5 mph93%30.30 "Hg6 mi
2:00 AM46 °FPassing clouds.2 mph93%30.30 "Hg5 mi
1:00 AM48 °FPassing clouds.3 mph87%30.33 "Hg5 mi
12:04 AM46 °FPassing clouds.6 mph87%30.30 "Hg5 mi
12:00 AM45 °FPassing clouds.6 mph93%30.30 "HgN/A
11:00 PM
Thu, Jul 28
45 °FClear.6 mph93%30.30 "Hg10 mi
10:00 PM46 °FClear.3 mph82%30.30 "Hg10 mi
9:00 PM50 °FClear.6 mph82%30.30 "Hg10 mi
8:00 PM50 °FClear.6 mph71%30.30 "Hg10 mi
7:00 PM52 °FPassing clouds.8 mph72%30.30 "HgN/A
6:00 PM52 °FPassing clouds.7 mph67%30.30 "HgN/A
5:00 PM55 °FPassing clouds.8 mph63%30.30 "HgN/A
4:00 PM55 °FPartly sunny.8 mph59%30.27 "HgN/A
3:00 PM57 °FPartly sunny.7 mph55%30.27 "HgN/A
2:00 PM57 °FPartly sunny.3 mph59%30.30 "HgN/A
1:00 PM57 °FPartly sunny.3 mph59%30.30 "HgN/A
Weather by CustomWeather, © 2016

See weather overviewHow to use our weather pages